Voltar ao catálogo

SCOUT B DEB

AtivoPO
NORAD 3392·DEBRIS·🇺🇸 United States

Lançado Aug 8, 1968 de Vandenberg Space Force Base

Loading…

Próximas Passagens (próximas 24 horas)

TLE

AtualizadoSource: Space-Track

Época: Sep 14, 2026, 14:14 UTC

1 03392U 68066H   26257.59365431  .00005199  00000-0  14348-2 0  9997
2 03392  80.6585 127.4286 0326705 305.2213  51.8774 14.19678568746048

Acompanhe SCOUT B DEB em tempo real com AllMySat

Download on the App Store